Location: Treviso
(45.6669°N, 12.2430°E)
Time: 03:36:17
(UTC+02:00)

ISS - Pass Details

Date: 24 May 2018
Orbit: 402 x 407 km, 51.6° (Epoch: 23 May)

Event Time Altitude Azimuth Distance (km) Brightness Sun altitude
Rises 22:51:10 0° 269° (W) 2,318 0.5 -16.6°
Reaches altitude 10° 22:53:22 10° 279° (W) 1,459 -0.4 -16.8°
Maximum altitude 22:56:23 34° 347° (NNW) 692 -2.0 -17.1°
Drops below altitude 10° 22:59:24 10° 54° (NE) 1,460 -1.0 -17.3°
Sets 23:01:37 0° 64° (ENE) 2,320 0.0 -17.5°
